Location: Maccacari
(45.1333°N, 11.1333°E)
Time: 00:29:09
(UTC+00:00)

A-11 Canister half - Pass Details

Date: 27 January 2021
Orbit: 1525 x 1684 km, 47.3° (Epoch: 07 March)

Event Time Altitude Azimuth Distance (km) Brightness Sun altitude
Rises 11:18:41 0° 197° (SSW) 4,661 12.6 26.5°
Reaches altitude 10° 11:22:14 10° 187° (S) 3,680 12.8 26.5°
Maximum altitude 11:29:42 29° 132° (SE) 2,539 11.0 26.5°
Drops below altitude 10° 11:37:16 10° 78° (ENE) 3,734 11.0 26.5°
Sets 11:40:53 0° 68° (ENE) 4,741 11.3 26.5°
